Kodiak, AK

2:00 PM AKDT on June 25, 2017 (GMT -0800)
Kodiak

Weather History for PADQ - December, 2011

Change the Weather History Date:

Thursday, December 15, 2011

  Actual Average Record
Temperature  
Mean Temperature 37 °F 31 °F  
Max Temperature 40 °F 36 °F 48 °F (1921)
Min Temperature 34 °F 26 °F 0 °F (1997)
Degree Days  
Heating Degree Days 28 34  
Month to date heating degree days 450 505  
Since 1 July heating degree days 3344 3300  
Cooling Degree Days 0 0  
Month to date cooling degree days 0 0  
Year to date cooling degree days 0 1  
Moisture  
Dew Point 31 °F    
Average Humidity 0    
Maximum Humidity 0    
Minimum Humidity 0    
Precipitation  
Precipitation 0.67 in 0.29 in 1.99 in (2004)
Month to date precipitation 3.80 4.26  
Year to date precipitation 68.41 73.53  
Snow  
Snow 2.20 in 0.50 in 10.70 in (1990)
Month to date snowfall 4.4 7.1  
Since 1 July snowfall 32.1 14.6  
Snow Depth 1.00 in    
Sea Level Pressure  
Sea Level Pressure 29.17 in    
Wind  
Wind Speed 14 mph (South)    
Max Wind Speed 21 mph    
Max Gust Speed 29 mph    
Visibility 8 miles    
Events Rain , Snow    
T = Trace of Precipitation, MM = Missing Value Source: NWS Daily Summary

Daily Weather History Graph

Daily Weather History Graph

Search for Another Location

Airport or City:

Trip Planner

Search our weather history database for the weather conditions in past years. The results will help you decide how hot, cold, wet, or windy it might be!

Date:

Astronomy

Dec. 15, 2011 Rise Set
Actual Time 9:47 AM AKST 4:22 PM AKST
Civil Twilight 8:56 AM AKST 5:13 PM AKST
Nautical Twilight 8:04 AM AKST 6:05 PM AKST
Astronomical Twilight 7:16 AM AKST 6:53 PM AKST
Moon 11:05 PM AKST (12/15) 12:10 PM AKST (12/15)
Length of Visible Light 8h 16m
Length of Day
6h 34m
Waning Gibbous, 73% of the Moon is Illuminated
Dec 15
Waning Gibbous
Dec 17
Last Quarter
Dec 24
New
Dec 31
First Quarter
Jan 8
Full

Hourly Weather History & Observations

Time (AKST) Temp. Windchill Dew Point Humidity Pressure Visibility Wind Dir Wind Speed Gust Speed Precip Events Conditions
12:45 AM 35.6 °F 22.7 °F 33.8 °F 93% 29.21 in 4.0 mi East 28.8 mph 40.3 mph 0.10 in Rain Rain
12:53 AM 36.0 °F 23.7 °F 34.0 °F 93% 29.21 in 5.0 mi East 26.5 mph 35.7 mph 0.10 in Rain Rain
1:53 AM 35.1 °F 24.1 °F 33.1 °F 92% 29.15 in 3.0 mi ENE 19.6 mph 33.4 mph 0.16 in Rain , Snow Light Rain
3:53 AM 35.1 °F 23.0 °F 33.1 °F 92% 29.04 in 3.0 mi East 24.2 mph - 0.15 in Rain , Snow Light Rain
4:53 AM 35.1 °F 27.9 °F 34.0 °F 96% 28.98 in 6.0 mi East 9.2 mph - 0.12 in Rain , Snow Light Rain
5:26 AM 33.8 °F 29.6 °F 32.0 °F 93% 28.98 in 10.0 mi SW 4.6 mph - 0.00 in Rain , Snow Light Rain
5:53 AM 34.0 °F 28.8 °F 32.0 °F 92% 29.00 in 10.0 mi South 5.8 mph - 0.00 in   Scattered Clouds
6:53 AM 37.0 °F 31.6 °F 30.9 °F 79% 29.03 in 10.0 mi SSW 6.9 mph - N/A   Scattered Clouds
7:53 AM 36.0 °F 33.3 °F 30.0 °F 79% 29.05 in 10.0 mi West 3.5 mph - N/A   Mostly Cloudy
8:53 AM 35.1 °F 29.3 °F 30.9 °F 85% 29.08 in 2.5 mi South 6.9 mph 19.6 mph 0.01 in Snow Light Snow
9:00 AM 35.6 °F 32.8 °F 32.0 °F 87% 29.08 in 3.0 mi SSW 3.5 mph - 0.01 in Snow Light Snow
9:09 AM 35.6 °F - 32.0 °F 87% 29.08 in 9.0 mi Calm Calm - 0.01 in   Mostly Cloudy
9:23 AM 35.6 °F 32.8 °F 32.0 °F 87% 29.10 in 9.0 mi South 3.5 mph - 0.01 in Snow Light Snow
9:53 AM 36.0 °F 33.3 °F 32.0 °F 86% 29.11 in 8.0 mi SW 3.5 mph - 0.02 in Rain , Snow Light Rain
10:53 AM 36.0 °F 33.3 °F 30.9 °F 82% 29.14 in 10.0 mi SSE 3.5 mph - 0.01 in Rain , Snow Light Rain
11:53 AM 36.0 °F 32.1 °F 33.1 °F 89% 29.16 in 5.0 mi SSW 4.6 mph - 0.03 in Rain , Snow Light Rain
12:22 PM 37.4 °F - 33.8 °F 87% 29.16 in 10.0 mi Calm Calm - 0.00 in   Overcast
12:53 PM 39.0 °F 32.3 °F 30.9 °F 73% 29.17 in 10.0 mi South 10.4 mph 21.9 mph 0.00 in Rain Light Rain
1:53 PM 39.9 °F 30.8 °F 28.9 °F 65% 29.18 in 10.0 mi South 18.4 mph 27.6 mph 0.00 in   Mostly Cloudy
2:53 PM 39.9 °F 30.8 °F 28.0 °F 63% 29.19 in 10.0 mi SSW 18.4 mph 26.5 mph 0.00 in   Mostly Cloudy
3:53 PM 39.0 °F 31.0 °F 28.0 °F 65% 29.21 in 10.0 mi South 13.8 mph 21.9 mph 0.00 in   Mostly Cloudy
4:53 PM 37.9 °F 27.9 °F 30.0 °F 73% 29.22 in 8.0 mi South 19.6 mph 25.3 mph 0.01 in Rain Light Rain
5:53 PM 36.0 °F 29.0 °F 30.9 °F 82% 29.25 in 4.0 mi SSW 9.2 mph 17.3 mph 0.03 in Rain , Snow Light Rain
6:32 PM 39.2 °F 31.6 °F 28.4 °F 65% 29.25 in 10.0 mi South 12.7 mph 20.7 mph 0.01 in Rain Light Rain
6:53 PM 39.0 °F 31.0 °F 28.0 °F 65% 29.26 in 10.0 mi SSW 13.8 mph 23.0 mph 0.01 in Rain Light Rain
7:53 PM 37.9 °F 32.7 °F 28.0 °F 68% 29.28 in 10.0 mi SSE 6.9 mph - 0.00 in   Mostly Cloudy
8:53 PM 37.0 °F 34.5 °F 30.0 °F 76% 29.29 in 10.0 mi Variable 3.5 mph - 0.00 in Rain , Snow Light Rain
9:53 PM 39.0 °F 30.3 °F 28.0 °F 65% 29.29 in 10.0 mi SSE 16.1 mph 21.9 mph 0.00 in   Mostly Cloudy
10:53 PM 39.0 °F 30.6 °F 28.9 °F 67% 29.31 in 10.0 mi SSE 15.0 mph 23.0 mph 0.01 in Rain Light Rain
11:24 PM 35.6 °F 29.9 °F 30.2 °F 81% 29.32 in 4.0 mi SSW 6.9 mph 23.0 mph 0.01 in Rain , Snow Light Rain
11:51 PM 35.6 °F 29.9 °F 32.0 °F 87% 29.33 in 10.0 mi Variable 6.9 mph - 0.02 in Rain , Snow Light Rain
11:53 PM 36.0 °F 28.5 °F 32.0 °F 86% 29.34 in 10.0 mi SSE 10.4 mph 17.3 mph 0.02 in Rain , Snow Light Rain